User: anonymous   Login
Location: Eferding
(48.3167°N, 14.0167°E)
Time: 01:44:40
(UTC+00:00)
Language:

CSL-04 Rocket - Orbit

View from above orbital plane
View from above orbital plane
View from above satellite
View from above satellite

Ground track
Ground track

The orbit data is extracted from the following two-line orbital elements,

1 25732U 99025C   20018.78876483 -.00000045  00000-0  35031-6 0  9994
2 25732  98.9607  46.3561 0036358 280.1002 134.7448 14.17671977 70618
Epoch (UTC): 18 January 2020 18:55:49
Eccentricity: 0.0036358
inclination: 98.9607°
perigee height: 807 km
apogee height: 859 km
right ascension of ascending node: 46.3561°
argument of perigee: 280.1002°
revolutions per day: 14.17671977
mean anomaly at epoch: 134.7448°
orbit number at epoch: 7061

The dashed part of the orbit path shows where the satellite is in the earth's shadow,  

DLR